Weather observations for the past three days for
Port Hope
Imperial (Metric)
Date Time (edt) Wind (mph) Vis. (mi.) Weather Sky Cond. Temperature (ºF) Relative Humidity Wind Chill (°F) Heat Index (°F) Pressure Precipitation (in)
Air Dwpt 6 hour altimeter (in) sea level (mb) 1 hr 3 hr 6 hr
Max. Min.
08 08:55 SW 6 0.00 NULL NULL 48 30.9 52% 46 29.84 1011.1
08 07:55 SW 5 0.00 NULL NULL 43 32 43 33.1 65% 41 29.83 1010.7
08 06:55 SW 7 0.00 NULL NULL 37 30.9 79% 32 29.83 1010.8
08 05:55 SW 6 0.00 NULL NULL 34 30.9 89% 29 29.83 1010.9
08 04:55 SW 6 0.00 NULL NULL 35.1 32 89% 31 29.83 1011.0
08 03:55 SW 5 0.00 NULL NULL 37 32 82% 34 29.83 1010.9
08 02:55 SW 5 0.00 NULL NULL 39 33.1 79% 36 29.83 1010.9
08 01:55 Calm 0.00 NULL NULL 39 33.1 44.1 37 79% 29.84 1011.0
08 00:55 S 6 0.00 NULL NULL 39.9 33.1 77% 36 29.85 1011.4
07 23:55 SE 3 0.00 NULL NULL 39.9 30 68% 29.85 1011.4
07 22:55 S 5 0.00 NULL NULL 39 28 65% 36 29.86 1011.6
07 21:55 SE 3 0.00 NULL NULL 41 28 60% 29.86 1011.6
07 20:55 S 5 0.00 NULL NULL 42.1 28 58% 40 29.85 1011.4
07 19:55 S 6 0.00 NULL NULL 44.1 28.9 45 42.1 55% 41 29.84 1011.0
07 18:55 SE 9 0.00 NULL NULL 44.1 27 51% 40 29.84 1011.2
07 17:55 SE 9 0.00 NULL NULL 44.1 28.9 55% 40 29.85 1011.4
07 16:55 E 10 0.00 NULL NULL 43 30 60% 38 29.85 1011.7
07 15:55 SE 10 0.00 NULL NULL 44.1 30.9 60% 39 29.86 1011.9
07 14:55 NE 13 0.00 NULL NULL 43 33.1 68% 37 29.86 1011.8
07 13:55 N 13 0.00 NULL NULL 44.1 32 46.9 39 63% 38 29.86 1011.9
07 12:55 N 8 0.00 NULL NULL 44.1 32 63% 40 29.89 1012.8
07 11:55 N 7 0.00 NULL NULL 45 34 66% 42 29.9 1013.0
07 10:55 N 7 0.00 NULL NULL 43 35.1 74% 39 29.9 1013.1
07 09:55 N 8 0.00 NULL NULL 45 28.9 54% 41 29.9 1013.0
07 08:55 Calm 0.00 NULL NULL 42.1 30 62% 29.89 1012.9
07 07:55 Calm 0.00 NULL NULL 39 30.9 39.9 32 73% 29.89 1012.9
07 06:55 Calm 0.00 NULL NULL 35.1 30.9 85% 29.88 1012.5
07 05:55 Calm 0.00 NULL NULL 34 28.9 82% 29.88 1012.7
07 04:55 Calm 0.00 NULL NULL 33.1 28.9 85% 29.89 1012.9
07 03:55 Calm 0.00 NULL NULL 34 28.9 82% 29.88 1012.8
07 02:55 SE 3 0.00 NULL NULL 34 28 79% 29.89 1012.8
07 01:55 E 7 0.00 NULL NULL 39.9 27 41 39.9 60% 36 29.9 1013.2
07 00:55 E 9 0.00 NULL NULL 41 27 57% 36 29.91 1013.5
06 23:55 E 12 0.00 NULL NULL 41 27 57% 35 29.91 1013.4
06 22:55 E 10 0.00 NULL NULL 41 25 53% 35 29.92 1013.8
06 21:55 E 10 0.00 NULL NULL 41 25 53% 35 29.93 1014.0
06 20:55 E 12 0.00 NULL NULL 41 26.1 55% 35 29.91 1013.5
06 19:55 E 14 0.00 NULL NULL 41 26.1 42.1 39.9 55% 34 29.89 1012.9
06 18:55 SE 13 0.00 NULL NULL 41 26.1 55% 34 29.9 1013.0
06 17:55 E 13 0.00 NULL NULL 41 27 57% 34 29.89 1012.9
06 16:55 E 12 0.00 NULL NULL 41 27 57% 35 29.89 1012.7
06 15:55 E 10 0.00 NULL NULL 39.9 27 60% 34 29.89 1012.9
06 14:55 E 12 0.00 NULL NULL 41 26.1 55% 35 29.9 1013.2
06 13:55 NE 8 0.00 NULL NULL 41 26.1 43 39 55% 36 29.91 1013.4
06 12:55 NE 7 0.00 NULL NULL 41 28 60% 37 29.91 1013.6
06 11:55 Vrbl 5 0.00 NULL NULL 41 32 70% 38 29.92 1013.7
06 10:55 Vrbl 5 0.00 NULL NULL 39.9 30.9 70% 37 29.9 1013.1
06 09:55 Calm 0.00 NULL NULL 39.9 30.9 70% 29.88 1012.6
06 08:55 N 8 0.00 NULL NULL 39 30 70% 34 29.87 1012.0
06 07:55 N 9 0.00 NULL NULL 39 30 39.9 37 70% 33 29.86 1011.7
06 06:55 N 10 G 21 0.00 NULL NULL 37.9 30 73% 32 29.82 1010.6
06 05:55 N 18 0.00 NULL NULL 37.9 30.9 76% 29 29.8 1009.5
06 04:55 N 18 G 28 0.00 NULL NULL 39 30.9 73% 30 29.8 1009.6
06 03:55 N 20 G 28 0.00 NULL NULL 39 33.1 79% 30 29.8 1009.6
06 02:55 N 18 G 28 0.00 NULL NULL 39 33.1 79% 30 29.79 1009.4
06 01:55 N 16 0.00 NULL NULL 39.9 34 43 39.9 79% 32 29.79 1009.1
06 00:55 N 12 0.00 NULL NULL 42.1 35.1 76% 36 29.78 1008.8
05 23:55 NE 13 0.00 NULL NULL 42.1 34 73% 36 29.78 1008.6
05 22:55 NE 16 0.00 NULL NULL 42.1 33.1 71% 35 29.76 1008.2
05 21:55 NE 16 0.00 NULL NULL 42.1 35.1 76% 35 29.75 1008.0
05 20:55 E 16 0.00 NULL NULL 42.1 37 82% 35 29.73 1007.1
05 19:55 E 15 0.00 NULL NULL 42.1 37.9 50 42.1 85% 35 29.71 1006.6
05 18:55 E 15 0.00 NULL NULL 44.1 37.9 79% 38 29.71 1006.6
05 17:55 E 18 0.00 NULL NULL 46.9 41 80% 40 29.7 1006.2
05 16:55 E 20 0.00 NULL NULL 48 39.9 74% 42 29.7 1006.1
05 15:55 E 21 0.00 Breezy NULL 46.9 39.9 77% 40 29.7 1006.2
05 14:55 E 18 0.00 NULL NULL 48 37.9 68% 42 29.7 1006.2
05 13:55 E 10 0.00 NULL NULL 50 37.9 55.9 46.9 63% 46 29.7 1005.9
05 12:55 SW 8 0.00 NULL NULL 54 35.1 49% 29.69 1005.4
05 11:55 Vrbl 6 0.00 NULL NULL 51.1 33.1 50% 29.7 1005.7
05 10:55 Vrbl 3 0.00 NULL NULL 48.9 36 61% 29.69 1005.1
05 09:55 NW 7 0.00 NULL NULL 46.9 35.1 63% 44 29.67 1004.6
Date Time (edt) Wind (mph) Vis. (mi.) Weather Sky Cond. Air Dwpt Max. Min. Relative Humidity Wind Chill (°F) Heat Index (°F) altimeter (in) sea level (mb) 1 hr 3 hr 6 hr
6 hour
Temperature (ºF) Pressure Precipitation (in)